Change the Weather History Date:

Wednesday, June 12, 2013

  Actual Average (KAIZ) Record (KAIZ)
Temperature  
Mean Temperature 82 °F -  
Max Temperature 91 °F 79 °F 93 °F (2013)
Min Temperature 73 °F 59 °F 55 °F (2011)
Cooling Degree Days 17    
Growing Degree Days 32 (Base 50)    
Moisture  
Dew Point 67 °F    
Average Humidity 59    
Maximum Humidity 78    
Minimum Humidity 43    
Precipitation  
Precipitation 0.00 in - - ()
Sea Level Pressure  
Sea Level Pressure 29.89 in    
Wind  
Wind Speed 11 mph (SSW)    
Max Wind Speed 22 mph    
Max Gust Speed 30 mph    
Visibility 10 miles    
Events      
Averages and records for this station are not official NWS values.
T = Trace of Precipitation, MM = Missing Value Source: NWS Daily Summary

Daily Weather History Graph

Daily Weather History Graph

Search for Another Location

Airport or City:

Trip Planner

Search our weather history database for the weather conditions in past years. The results will help you decide how hot, cold, wet, or windy it might be!

Date:

Astronomy

Jun. 12, 2013 Rise Set
Actual Time 5:47 AM CDT 8:33 PM CDT
Civil Twilight 5:16 AM CDT 9:05 PM CDT
Nautical Twilight 4:37 AM CDT 9:44 PM CDT
Astronomical Twilight 3:52 AM CDT 10:29 PM CDT
Moon 9:24 AM CDT (6/12) 11:13 PM CDT (6/12)
Length of Visible Light 15h 48m
Length of Day
14h 46m
Waxing Crescent, 14% of the Moon is Illuminated
Jun 12
Waxing Crescent
Jun 16
First Quarter
Jun 23
Full
Jun 29
Last Quarter
Jul 8
New

Hourly Weather History & Observations

Time (CDT) Temp. Heat Index Dew Point Humidity Pressure Visibility Wind Dir Wind Speed Gust Speed Precip Events Conditions
12:15 AM 77.0 °F - 62.6 °F 61% 29.94 in 10.0 mi South 8.1 mph - N/A   Clear
12:35 AM 78.8 °F - 62.6 °F 57% 29.94 in 10.0 mi South 8.1 mph - N/A   Clear
12:55 AM 77.0 °F - 62.6 °F 61% 29.93 in 10.0 mi South 9.2 mph - N/A   Clear
1:15 AM 78.8 °F - 62.6 °F 57% 29.93 in 10.0 mi South 8.1 mph - N/A   Clear
1:35 AM 77.0 °F - 62.6 °F 61% 29.93 in 10.0 mi South 9.2 mph - N/A   Clear
1:55 AM 77.0 °F - 62.6 °F 61% 29.92 in 10.0 mi South 8.1 mph - N/A   Clear
2:15 AM 77.0 °F - 64.4 °F 65% 29.93 in 10.0 mi SSW 8.1 mph - N/A   Clear
2:35 AM 77.0 °F - 64.4 °F 65% 29.92 in 10.0 mi SSW 8.1 mph - N/A   Clear
2:55 AM 75.2 °F - 64.4 °F 69% 29.92 in 10.0 mi SSW 8.1 mph - N/A   Clear
3:15 AM 73.4 °F - 64.4 °F 73% 29.92 in 10.0 mi South 8.1 mph - N/A   Clear
3:35 AM 73.4 °F - 64.4 °F 73% 29.91 in 10.0 mi South 8.1 mph - N/A   Clear
3:55 AM 73.4 °F - 64.4 °F 73% 29.92 in 10.0 mi SSW 9.2 mph - N/A   Clear
4:15 AM 73.4 °F - 64.4 °F 73% 29.91 in 10.0 mi South 9.2 mph - N/A   Clear
4:35 AM 73.4 °F - 64.4 °F 73% 29.91 in 10.0 mi South 8.1 mph - N/A   Clear
4:55 AM 73.4 °F - 66.2 °F 78% 29.91 in 10.0 mi South 8.1 mph - N/A   Clear
5:15 AM 73.4 °F - 66.2 °F 78% 29.91 in 10.0 mi South 8.1 mph - N/A   Clear
5:35 AM 73.4 °F - 66.2 °F 78% 29.92 in 10.0 mi SSW 10.4 mph 17.3 mph N/A   Clear
5:55 AM 73.4 °F - 66.2 °F 78% 29.92 in 10.0 mi SSW 13.8 mph 18.4 mph N/A   Clear
6:15 AM 73.4 °F - 66.2 °F 78% 29.92 in 10.0 mi SSW 10.4 mph 19.6 mph N/A   Clear
6:35 AM 75.2 °F - 68.0 °F 78% 29.93 in 10.0 mi SSW 11.5 mph 16.1 mph N/A   Clear
6:55 AM 75.2 °F - 68.0 °F 78% 29.94 in 10.0 mi SSW 11.5 mph 17.3 mph N/A   Clear
7:15 AM 77.0 °F - 68.0 °F 74% 29.94 in 10.0 mi SSW 11.5 mph 17.3 mph N/A   Clear
7:35 AM 78.8 °F - 68.0 °F 69% 29.95 in 10.0 mi SSW 12.7 mph 21.9 mph N/A   Clear
7:55 AM 78.8 °F - 68.0 °F 69% 29.95 in 10.0 mi SSW 11.5 mph 20.7 mph N/A   Clear
8:15 AM 80.6 °F 83.2 °F 68.0 °F 65% 29.95 in 10.0 mi SSW 11.5 mph 18.4 mph N/A   Clear
8:35 AM 80.6 °F 83.2 °F 68.0 °F 65% 29.95 in 10.0 mi SSW 10.4 mph 21.9 mph N/A   Clear
8:55 AM 82.4 °F 85.4 °F 68.0 °F 62% 29.95 in 10.0 mi SSW 13.8 mph 20.7 mph N/A   Clear
9:15 AM 82.4 °F 85.4 °F 68.0 °F 62% 29.94 in 10.0 mi SSW 15.0 mph 26.5 mph N/A   Clear
9:35 AM 82.4 °F 85.4 °F 68.0 °F 62% 29.93 in 10.0 mi SSW 16.1 mph 23.0 mph N/A   Clear
9:55 AM 84.2 °F 87.3 °F 68.0 °F 58% 29.93 in 10.0 mi SSW 17.3 mph 23.0 mph N/A   Clear
10:15 AM 86.0 °F 89.4 °F 68.0 °F 55% 29.92 in 10.0 mi South 13.8 mph 23.0 mph N/A   Clear
10:35 AM 86.0 °F 90.4 °F 69.8 °F 58% 29.91 in 10.0 mi South 12.7 mph 23.0 mph N/A   Clear
10:55 AM 86.0 °F 90.4 °F 69.8 °F 58% 29.91 in 10.0 mi South 12.7 mph 21.9 mph N/A   Clear
11:15 AM 86.0 °F 89.4 °F 68.0 °F 55% 29.90 in 10.0 mi SSW 19.6 mph 25.3 mph N/A   Clear
11:35 AM 87.8 °F 92.6 °F 69.8 °F 55% 29.90 in 10.0 mi SSW 16.1 mph 24.2 mph N/A   Clear
11:55 AM 87.8 °F 91.4 °F 68.0 °F 52% 29.89 in 10.0 mi South 13.8 mph 24.2 mph N/A   Clear
12:15 PM 87.8 °F 91.4 °F 68.0 °F 52% 29.89 in 10.0 mi SSW 17.3 mph 27.6 mph N/A   Clear
12:35 PM 87.8 °F 91.4 °F 68.0 °F 52% 29.89 in 10.0 mi South 17.3 mph 24.2 mph N/A   Clear
12:55 PM 89.6 °F 94.7 °F 69.8 °F 52% 29.88 in 10.0 mi SSW 12.7 mph 25.3 mph N/A   Clear
1:15 PM 89.6 °F 94.7 °F 69.8 °F 52% 29.88 in 10.0 mi SSW 13.8 mph 23.0 mph N/A   Clear
1:35 PM 89.6 °F 92.2 °F 66.2 °F 46% 29.88 in 10.0 mi SSW 16.1 mph 28.8 mph N/A   Clear
1:55 PM 89.6 °F 92.2 °F 66.2 °F 46% 29.88 in 10.0 mi SSW 19.6 mph 25.3 mph N/A   Clear
2:15 PM 89.6 °F 93.4 °F 68.0 °F 49% 29.87 in 10.0 mi SSW 13.8 mph 23.0 mph N/A   Clear
2:35 PM 89.6 °F 93.4 °F 68.0 °F 49% 29.87 in 10.0 mi SSW 19.6 mph 28.8 mph N/A   Clear
2:55 PM 91.4 °F 95.4 °F 68.0 °F 46% 29.86 in 10.0 mi South 16.1 mph 28.8 mph N/A   Clear
3:15 PM 89.6 °F 92.2 °F 66.2 °F 46% 29.86 in 10.0 mi SSW 15.0 mph 25.3 mph N/A   Clear
3:35 PM 91.4 °F 94.0 °F 66.2 °F 43% 29.86 in 10.0 mi SSW 21.9 mph 29.9 mph N/A   Clear
3:55 PM 91.4 °F 95.4 °F 68.0 °F 46% 29.86 in 10.0 mi SSW 16.1 mph 26.5 mph N/A   Clear
4:15 PM 89.6 °F 91.1 °F 64.4 °F 43% 29.85 in 10.0 mi SSW 17.3 mph 25.3 mph N/A   Clear
4:35 PM 89.6 °F 91.1 °F 64.4 °F 43% 29.86 in 10.0 mi SW 17.3 mph 27.6 mph N/A   Clear
4:55 PM 89.6 °F 91.1 °F 64.4 °F 43% 29.85 in 10.0 mi SW 17.3 mph 28.8 mph N/A   Clear
5:15 PM 89.6 °F 92.2 °F 66.2 °F 46% 29.85 in 10.0 mi SW 12.7 mph 19.6 mph N/A   Clear
5:35 PM 89.6 °F 91.1 °F 64.4 °F 43% 29.86 in 10.0 mi SW 16.1 mph 25.3 mph N/A   Mostly Cloudy
5:55 PM 87.8 °F 89.4 °F 64.4 °F 46% 29.85 in 10.0 mi SW 11.5 mph 18.4 mph N/A   Overcast
6:15 PM 87.8 °F 89.4 °F 64.4 °F 46% 29.84 in 10.0 mi SW 11.5 mph 19.6 mph N/A   Scattered Clouds
6:35 PM 87.8 °F 89.4 °F 64.4 °F 46% 29.84 in 10.0 mi SW 13.8 mph 25.3 mph N/A   Clear
6:55 PM 87.8 °F 89.4 °F 64.4 °F 46% 29.84 in 10.0 mi SW 13.8 mph 17.3 mph N/A   Clear
7:15 PM 86.0 °F 88.2 °F 66.2 °F 51% 29.85 in 10.0 mi SW 9.2 mph 20.7 mph N/A   Clear
7:35 PM 86.0 °F 89.4 °F 68.0 °F 55% 29.85 in 10.0 mi SSW 9.2 mph - N/A   Clear
7:55 PM 86.0 °F 88.2 °F 66.2 °F 51% 29.85 in 10.0 mi SW 12.7 mph 17.3 mph N/A   Clear
8:15 PM 84.2 °F 86.6 °F 66.2 °F 55% 29.85 in 10.0 mi SW 10.4 mph - N/A   Clear
8:35 PM 82.4 °F 84.6 °F 66.2 °F 58% 29.85 in 10.0 mi SSW 9.2 mph - N/A   Clear
8:55 PM 82.4 °F 84.6 °F 66.2 °F 58% 29.85 in 10.0 mi SSW 12.7 mph - N/A   Scattered Clouds
9:15 PM 82.4 °F 85.4 °F 68.0 °F 62% 29.86 in 10.0 mi SSW 8.1 mph - N/A   Scattered Clouds
9:35 PM 82.4 °F 85.4 °F 68.0 °F 62% 29.86 in 10.0 mi SW 10.4 mph - N/A   Clear
9:55 PM 82.4 °F 85.4 °F 68.0 °F 62% 29.86 in 10.0 mi SSW 11.5 mph 18.4 mph N/A   Clear
10:15 PM 82.4 °F 85.4 °F 68.0 °F 62% 29.87 in 10.0 mi SSW 12.7 mph 19.6 mph N/A   Clear
10:35 PM 82.4 °F 85.4 °F 68.0 °F 62% 29.87 in 10.0 mi SW 16.1 mph 24.2 mph N/A   Clear
10:55 PM 80.6 °F 83.2 °F 68.0 °F 65% 29.87 in 10.0 mi SW 15.0 mph 21.9 mph N/A   Clear
11:15 PM 80.6 °F 83.2 °F 68.0 °F 65% 29.87 in 10.0 mi SW 17.3 mph 24.2 mph N/A   Clear
11:35 PM 80.6 °F 83.2 °F 68.0 °F 65% 29.88 in 10.0 mi SW 11.5 mph - N/A   Clear
11:55 PM 80.6 °F 83.2 °F 68.0 °F 65% 29.88 in 10.0 mi SW 9.2 mph - N/A   Clear